Showing default

FENGYUN 1C, 25730

Orbit data source: Space-Track

FENGYUN 1C, 25730 is a payload satellite owned by CNMSC (CN) in SSO that was launched on Mon, 10 May 1999 UTC via a CHANG ZHENG 4B launch vehicle from the Taiyaun Space Center, China (TSC). Payloads include a variety of satellites, spacecraft, and rockets equipped with specific instruments for various scientific and technological missions. These include communications satellites like Starlink; space stations such as the ISS; scientific satellites like the Hubble; Earth observation satellites from companies like Planet Labs, Umbra, and HawkEye 360; GPS; miniature CubeSats for education and research; and military/defense satellites.

Loading next visibility...
FENGYUN 1C details
Identifier
25730, 1999-025A
Orbit
SSO
Last TLE update18 hours ago
Origin
Flag of CNCNMSC (CN / PRC)
ManufacturerSISE
MissionNon-operational Civil Imaging
Bus & MotorFY-1, Unknown motor
Mass958 kg wet, ~958 kg dry
Launch date (UTC)
1999-05-10 (26 years ago)
Launch vehicle
CHANG ZHENG 4B
Launch site
Taiyaun Space Center, China (TSC)
Object type
Payload
Rocket body
Debris
Shape & HBRBox + 2 Pan, 8.6 m
Radar Cross Section5.659 m², Medium (>0.1 m² and < 1m²)

Expand to show TLE details & history

TLE from 18 hours ago
0 FENGYUN 1C
1 25730U 99025A   25025.09185154  .00006135  00000-0  26980-2 0  9991
2 25730  98.9182  86.6624 0014051 262.2761 111.0095 14.23792125325569
Epoch: 2025-01-25T02:12Z
Definitive object data (Epoch: 2025-01-25T02:12:15.973Z)
Latitude13.23551°
Longitude-73.15374°
Altitude818.356 km
Speed7.443 km/s
True Right ascension05h 38m 14s
True Declination13° 09' 35"
Sunlit
Object was in full shadow at TLE epoch
Visualization TLE readout
Latitude-66.70454°
Longitude-49.02738°
Altitude829.147 km
Speed7.442 km/s
Apparent Right ascension08h 49m 24s
Apparent Declination-55° 19' 34"
Sunlit
Object is in daylight
Visualization observer readout
Local Sidereal Time21:43:34
Azimuth154.226° SSE
Elevation-72.161°
Doppler factor1
Orbital elements
Apogee altitude819.82 km
Perigee altitude799.621 km
Semi-major axis7,187.857 km
Eccentricity0.0014051
Inclination98.9182°
RAAN86.6624°
Arg. of periapsis262.2761°
True anomaly111.15971°
Mean anomaly111.0095°
Eccentric anomaly111.08462°
Mean motion3.56159 °/min
BSTAR0.002698
Orbital period101.08 mins
Loading maneuver chart data...
Loading historical data...
Loading historical data...
Loading historical data...
Loading historical data...
Loading historical data...
Loading historical data...
Loading historical data...

FENGYUN 1C Visibility forecast

Observer location: undefined°, undefined

Span
Click to sort rows by Start time (UTC) header in descending order
Start Az.
Max El. time (UTC)
Max El. Az.
Max El.
End time (UTC)
End Az.
9 mins2025-01-26 03:33:28.680Z148.923° SSE2025-01-26 03:38:28.680Z53.443° ENE40.239°2025-01-26 03:42:28.680Z356.192° N
5 mins2025-01-26 05:16:28.680Z243.39° WSW2025-01-26 05:18:28.680Z269.343° W16.043°2025-01-26 05:21:28.680Z304.958° NW
6 mins2025-01-26 15:52:28.680Z61.617° ENE2025-01-26 15:54:28.680Z91.743° ESE21.506°2025-01-26 15:58:28.680Z144.127° SSE
8 mins2025-01-26 17:31:28.680Z350.302° N2025-01-26 17:34:28.680Z296.501° NW34.051°2025-01-26 17:39:28.680Z221.483° SW
|